Location: Rancho Del Sol Observatory
(38.7214°N, 120.6350°W)
Time: 19:52:38
(UTC-08:00)

A-11 Canister half - Pass Details

Date: 01 February 2020
Orbit: 1517 x 1683 km, 47.2° (Epoch: 16 February)

Event Time Altitude Azimuth Distance (km) Brightness Sun altitude
Rises 21:31:06 0° 238° (WSW) 4,809 12.0 -48.0°
Reaches altitude 10° 21:34:14 10° 238° (WSW) 3,803 11.3 -48.6°
Enters shadow 21:37:46 26° 239° (WSW) 2,718 10.4 -49.2°
Maximum altitude 21:43:54 88° 327° (NNW) 1,560 - -50.4°
Drops below altitude 10° 21:53:17 10° 60° (ENE) 3,698 - -52.0°
Sets 21:56:18 0° 61° (ENE) 4,672 - -52.6°
